Greensboro, NC

6:03 PM EDT on July 26, 2017 (GMT -0400)
Piedmont Triad International

Weather History for KGSO - September, 2014

Change the Weather History Date:

Monday, September 22, 2014

  Actual Average Record
Temperature  
Mean Temperature 67 °F 68 °F  
Max Temperature 76 °F 78 °F 95 °F (1931)
Min Temperature 57 °F 58 °F 39 °F (1918)
Degree Days  
Heating Degree Days 0 2  
Month to date heating degree days 0 11  
Since 1 July heating degree days 0 12  
Cooling Degree Days 2 4  
Month to date cooling degree days 187 157  
Year to date cooling degree days 1440 1419  
Growing Degree Days 16 (Base 50)    
Moisture  
Dew Point 52 °F    
Average Humidity 60    
Maximum Humidity 77    
Minimum Humidity 43    
Precipitation  
Precipitation 0.00 in 0.12 in 5.11 in (1979)
Month to date precipitation 2.57 3.23  
Year to date precipitation 28.45 32.02  
Sea Level Pressure  
Sea Level Pressure 30.03 in    
Wind  
Wind Speed 6 mph (North)    
Max Wind Speed 12 mph    
Max Gust Speed 16 mph    
Visibility 10 miles    
Events      
T = Trace of Precipitation, MM = Missing Value Source: NWS Daily Summary

Daily Weather History Graph

Daily Weather History Graph

Search for Another Location

Airport or City:

Trip Planner

Search our weather history database for the weather conditions in past years. The results will help you decide how hot, cold, wet, or windy it might be!

Date:

Astronomy

Sep. 22, 2014 Rise Set
Actual Time 7:07 AM EDT 7:16 PM EDT
Civil Twilight 6:42 AM EDT 7:42 PM EDT
Nautical Twilight 6:12 AM EDT 8:12 PM EDT
Astronomical Twilight 5:41 AM EDT 8:42 PM EDT
Moon 5:36 AM EDT (9/22) 6:22 PM EDT (9/22)
Length of Visible Light 13h 00m
Length of Day
12h 08m
Waning Crescent, 2% of the Moon is Illuminated
Sep 22
Waning Crescent
Sep 24
New
Oct 1
First Quarter
Oct 8
Full
Oct 15
Last Quarter

Hourly Weather History & Observations

Time (EDT) Temp. Dew Point Humidity Pressure Visibility Wind Dir Wind Speed Gust Speed Precip Events Conditions
12:54 AM 71.1 °F 63.0 °F 75% 29.87 in 10.0 mi NW 10.4 mph - N/A   Mostly Cloudy
1:54 AM 71.1 °F 61.0 °F 70% 29.88 in 10.0 mi NNW 6.9 mph - N/A   Scattered Clouds
2:54 AM 66.9 °F 53.1 °F 61% 29.89 in 10.0 mi NW 6.9 mph - N/A   Partly Cloudy
3:54 AM 66.2 °F 48.2 °F 52% 29.94 in 10.0 mi NNW 8.1 mph - N/A   Partly Cloudy
4:54 AM 64.0 °F 50.0 °F 60% 29.93 in 10.0 mi NNW 4.6 mph - N/A   Partly Cloudy
5:54 AM 62.1 °F 51.1 °F 67% 29.95 in 10.0 mi NNW 5.8 mph - N/A   Scattered Clouds
6:54 AM 57.0 °F 50.0 °F 77% 29.99 in 10.0 mi West 3.5 mph - N/A   Scattered Clouds
7:54 AM 60.1 °F 52.0 °F 75% 30.00 in 10.0 mi NW 4.6 mph - N/A   Scattered Clouds
8:54 AM 64.0 °F 53.1 °F 67% 30.02 in 10.0 mi NE 4.6 mph - N/A   Partly Cloudy
9:54 AM 66.0 °F 51.1 °F 59% 30.06 in 10.0 mi NNE 9.2 mph - N/A   Partly Cloudy
10:54 AM 68.0 °F 52.0 °F 56% 30.06 in 10.0 mi NE 10.4 mph - N/A   Scattered Clouds
11:54 AM 70.0 °F 51.1 °F 51% 30.06 in 10.0 mi NNE 8.1 mph - N/A   Scattered Clouds
12:54 PM 72.0 °F 51.1 °F 48% 30.05 in 10.0 mi Variable 3.5 mph - N/A   Mostly Cloudy
1:54 PM 73.0 °F 51.1 °F 46% 30.04 in 10.0 mi North 5.8 mph - N/A   Mostly Cloudy
2:54 PM 73.9 °F 51.1 °F 45% 30.04 in 10.0 mi NNE 9.2 mph - N/A   Mostly Cloudy
3:54 PM 75.0 °F 51.1 °F 43% 30.03 in 10.0 mi Variable 6.9 mph - N/A   Mostly Cloudy
4:54 PM 73.0 °F 50.0 °F 44% 30.04 in 10.0 mi NNE 9.2 mph - N/A   Mostly Cloudy
5:54 PM 72.0 °F 51.1 °F 48% 30.05 in 10.0 mi NE 5.8 mph - N/A   Mostly Cloudy
6:54 PM 71.1 °F 52.0 °F 51% 30.08 in 10.0 mi NNE 3.5 mph - N/A   Mostly Cloudy
7:54 PM 68.0 °F 54.0 °F 61% 30.11 in 10.0 mi NNE 5.8 mph - N/A   Scattered Clouds
8:54 PM 64.9 °F 53.1 °F 65% 30.13 in 10.0 mi North 3.5 mph - N/A   Clear
9:54 PM 63.0 °F 53.1 °F 70% 30.14 in 10.0 mi NNE 5.8 mph - N/A   Clear
10:54 PM 62.1 °F 51.1 °F 67% 30.16 in 10.0 mi NNE 4.6 mph - N/A   Partly Cloudy
11:54 PM 61.0 °F 51.1 °F 70% 30.16 in 10.0 mi NNE 4.6 mph - N/A   Clear